Lid_Strength_Index
1 1 1 1 1 1 2 1 1 3 7 9 5 4 3 5 4 4 5 5 6 8 8 9 7 7 10 9
2 2 1 2 2 2 2 1 1 4 10 5 5 5 5 5 4 4 4 4 4 6 7 7 8 10 10 13
2 2 2 2 1 1 2 2 4 5 9 3 7 6 7 6 5 4 3 3 5 7 7 10 12 11 14 12
2 2 2 2 2 4 4 5 5 9 8 9 7 7 7 6 6 6 5 6 7 10 10 12 16 13 13 12
2 2 4 7 10 9 10 11 10 10 8 7 7 8 6 7 7 8 10 8 11 13 10 10 10 11 12 13
3 3 6 9 10 10 13 8 8 8 7 8 9 8 6 9 9 11 10 11 12 9 8 9 10 11 13 13
3 5 7 8 6 8 13 9 8 7 8 7 8 9 7 8 10 11 11 13 11 8 9 10 11 12 13 13
5 5 7 5 7 7 14 11 9 8 7 6 9 7 7 8 10 12 11 12 10 10 11 11 11 14 10 11
6 6 5 5 7 9 18 10 9 6 8 9 9 9 7 9 12 11 12 13 12 12 13 12 11 12 10 11
6 6 5 5 7 14 17 12 9 10 11 10 10 9 10 9 9 12 12 13 10 11 12 11 10 10 11 12
8 5 5 7 14 16 11 13 12 11 12 12 12 11 12 14 15 17 17 14 12 11 10 13 11 12 14 19
6 6 7 12 17 12 13 11 12 12 14 13 13 13 14 15 13 14 16 17 18 13 11 13 15 14 15 18
6 6 10 16 16 14 12 13 13 16 15 13 13 14 15 14 13 13 17 17 17 11 10 10 11 14 16 12
6 8 13 14 14 11 11 12 16 14 16 15 15 15 15 12 12 12 12 14 18 13 11 10 10 12 10 15
8 12 16 15 12 10 10 12 14 14 14 15 15 15 14 13 11 11 11 13 14 15 12 13 13 13 13 12
14 14 16 12 10 11 10 11 12 12 14 13 15 14 14 13 10 10 13 12 13 17 14 10 9 12 13 13
18 16 13 12 11 11 12 12 13 12 12 14 16 13 12 9 9 10 11 11 15 20 17 15 11 12 11 11